Year,Month,Day,Hour,Minute,Value (Times are PST for temperature in C)
2015,10,23,00,00,6.00
2015,10,23,00,01,6.00
2015,10,23,00,02,6.00
2015,10,23,00,03,6.00
2015,10,23,00,04,6.00
2015,10,23,00,05,6.00
2015,10,23,00,06,6.10
2015,10,23,00,07,6.10
2015,10,23,00,08,6.10
2015,10,23,00,09,6.10
2015,10,23,00,10,6.10
2015,10,23,00,11,6.10
2015,10,23,00,12,6.10
2015,10,23,00,13,6.00
2015,10,23,00,14,6.00
2015,10,23,00,15,5.90
2015,10,23,00,16,6.00
2015,10,23,00,17,6.00
2015,10,23,00,18,6.00
2015,10,23,00,19,5.90
2015,10,23,00,20,5.90
2015,10,23,00,21,5.90
2015,10,23,00,22,5.90
2015,10,23,00,23,5.90
2015,10,23,00,24,5.90
2015,10,23,00,25,5.90
2015,10,23,00,26,5.90
2015,10,23,00,27,6.00
2015,10,23,00,28,5.90
2015,10,23,00,29,5.90
2015,10,23,00,30,5.90
2015,10,23,00,31,5.90
2015,10,23,00,32,5.90
2015,10,23,00,33,5.90
2015,10,23,00,34,5.90
2015,10,23,00,35,5.90
2015,10,23,00,36,5.90
2015,10,23,00,37,5.90
2015,10,23,00,38,5.90
2015,10,23,00,39,5.90
2015,10,23,00,40,5.90
2015,10,23,00,41,5.90
2015,10,23,00,42,5.80
2015,10,23,00,43,5.70
2015,10,23,00,44,5.70
2015,10,23,00,45,5.70
2015,10,23,00,46,5.70
2015,10,23,00,47,5.70
2015,10,23,00,48,5.70
2015,10,23,00,49,5.70
2015,10,23,00,50,5.70
2015,10,23,00,51,5.70
2015,10,23,00,52,5.70
2015,10,23,00,53,5.70
2015,10,23,00,54,5.70
2015,10,23,00,55,5.60
2015,10,23,00,56,5.60
2015,10,23,00,57,5.50
2015,10,23,00,58,5.50
2015,10,23,00,59,5.40
2015,10,23,01,00,5.40
2015,10,23,01,01,5.40
2015,10,23,01,02,5.40
2015,10,23,01,03,5.30
2015,10,23,01,04,5.30
2015,10,23,01,05,5.20
2015,10,23,01,06,5.20
2015,10,23,01,07,5.10
2015,10,23,01,08,5.10
2015,10,23,01,09,5.10
2015,10,23,01,10,5.10
2015,10,23,01,11,5.10
2015,10,23,01,12,5.20
2015,10,23,01,13,5.20
2015,10,23,01,14,5.20
2015,10,23,01,15,5.30
2015,10,23,01,16,5.30
2015,10,23,01,17,5.30
2015,10,23,01,18,5.40
2015,10,23,01,19,5.50
2015,10,23,01,20,5.60
2015,10,23,01,21,5.80
2015,10,23,01,22,5.90
2015,10,23,01,23,6.10
2015,10,23,01,24,6.20
2015,10,23,01,25,6.20
2015,10,23,01,26,6.30
2015,10,23,01,27,6.30
2015,10,23,01,28,6.30
2015,10,23,01,29,6.40
2015,10,23,01,30,6.40
2015,10,23,01,31,6.50
2015,10,23,01,32,6.60
2015,10,23,01,33,6.60
2015,10,23,01,34,6.70
2015,10,23,01,35,6.80
2015,10,23,01,36,6.90
2015,10,23,01,37,6.90
2015,10,23,01,38,7.00
2015,10,23,01,39,7.00
2015,10,23,01,40,7.00
2015,10,23,01,41,7.00
2015,10,23,01,42,7.10
2015,10,23,01,43,7.10
2015,10,23,01,44,7.10
2015,10,23,01,45,7.10
2015,10,23,01,46,7.00
2015,10,23,01,47,7.00
2015,10,23,01,48,6.90
2015,10,23,01,49,6.80
2015,10,23,01,50,6.80
2015,10,23,01,51,6.70
2015,10,23,01,52,6.70
2015,10,23,01,53,6.70
2015,10,23,01,54,6.80
2015,10,23,01,55,6.80
2015,10,23,01,56,6.80
2015,10,23,01,57,6.90
2015,10,23,01,58,7.00
2015,10,23,01,59,7.00
2015,10,23,02,00,7.00
2015,10,23,02,01,7.00
2015,10,23,02,02,6.90
2015,10,23,02,03,6.90
2015,10,23,02,04,6.90
2015,10,23,02,05,6.90
2015,10,23,02,06,6.80
2015,10,23,02,07,6.70
2015,10,23,02,08,6.60
2015,10,23,02,09,6.50
2015,10,23,02,10,6.40
2015,10,23,02,11,6.20
2015,10,23,02,12,6.10
2015,10,23,02,13,6.10
2015,10,23,02,14,6.00
2015,10,23,02,15,6.00
2015,10,23,02,16,6.00
2015,10,23,02,17,6.00
2015,10,23,02,18,6.00
2015,10,23,02,19,6.10
2015,10,23,02,20,6.10
2015,10,23,02,21,6.20
2015,10,23,02,22,6.30
2015,10,23,02,23,6.40
2015,10,23,02,24,6.50
2015,10,23,02,25,6.60
2015,10,23,02,26,6.60
2015,10,23,02,27,6.70
2015,10,23,02,28,6.70
2015,10,23,02,29,6.60
2015,10,23,02,30,6.50
2015,10,23,02,31,6.40
2015,10,23,02,32,6.40
2015,10,23,02,33,6.30
2015,10,23,02,34,6.30
2015,10,23,02,35,6.30
2015,10,23,02,36,6.30
2015,10,23,02,37,6.40
2015,10,23,02,38,6.50
2015,10,23,02,39,6.60
2015,10,23,02,40,6.70
2015,10,23,02,41,6.80
2015,10,23,02,42,6.90
2015,10,23,02,43,7.00
2015,10,23,02,44,7.10
2015,10,23,02,45,7.20
2015,10,23,02,46,7.30
2015,10,23,02,47,7.30
2015,10,23,02,48,7.40
2015,10,23,02,49,7.40
2015,10,23,02,50,7.40
2015,10,23,02,51,7.30
2015,10,23,02,52,7.30
2015,10,23,02,53,7.30
2015,10,23,02,54,7.30
2015,10,23,02,55,7.30
2015,10,23,02,56,7.30
2015,10,23,02,57,7.40
2015,10,23,02,58,7.40
2015,10,23,02,59,7.40
2015,10,23,03,00,7.50
2015,10,23,03,01,7.50
2015,10,23,03,02,7.50
2015,10,23,03,03,7.60
2015,10,23,03,04,7.60
2015,10,23,03,05,7.60
2015,10,23,03,06,7.70
2015,10,23,03,07,7.70
2015,10,23,03,08,7.80
2015,10,23,03,09,7.80
2015,10,23,03,10,7.90
2015,10,23,03,11,7.90
2015,10,23,03,12,7.90
2015,10,23,03,13,7.90
2015,10,23,03,14,7.90
2015,10,23,03,15,7.90
2015,10,23,03,16,8.00
2015,10,23,03,17,8.00
2015,10,23,03,18,8.00
2015,10,23,03,19,8.00
2015,10,23,03,20,8.00
2015,10,23,03,21,8.00
2015,10,23,03,22,8.00
2015,10,23,03,23,8.00
2015,10,23,03,24,8.00
2015,10,23,03,25,8.00
2015,10,23,03,26,7.90
2015,10,23,03,27,7.90
2015,10,23,03,28,7.90
2015,10,23,03,29,7.90
2015,10,23,03,30,7.90
2015,10,23,03,31,7.90
2015,10,23,03,32,7.90
2015,10,23,03,33,7.80
2015,10,23,03,34,7.80
2015,10,23,03,35,7.80
2015,10,23,03,36,7.70
2015,10,23,03,37,7.60
2015,10,23,03,38,7.50
2015,10,23,03,39,7.50
2015,10,23,03,40,7.50
2015,10,23,03,41,7.40
2015,10,23,03,42,7.50
2015,10,23,03,43,7.60
2015,10,23,03,44,7.60
2015,10,23,03,45,7.70
2015,10,23,03,46,7.70
2015,10,23,03,47,7.80
2015,10,23,03,48,7.80
2015,10,23,03,49,7.80
2015,10,23,03,50,7.80
2015,10,23,03,51,7.80
2015,10,23,03,52,7.80
2015,10,23,03,53,7.80
2015,10,23,03,54,7.80
2015,10,23,03,55,7.80
2015,10,23,03,56,7.80
2015,10,23,03,57,7.80
2015,10,23,03,58,7.80
2015,10,23,03,59,7.80
2015,10,23,04,00,7.80
2015,10,23,04,01,7.80
2015,10,23,04,02,7.80
2015,10,23,04,03,7.80
2015,10,23,04,04,7.80
2015,10,23,04,05,7.80
2015,10,23,04,06,7.80
2015,10,23,04,07,7.80
2015,10,23,04,08,7.80
2015,10,23,04,09,7.80
2015,10,23,04,10,7.80
2015,10,23,04,11,7.80
2015,10,23,04,12,7.80
2015,10,23,04,13,7.80
2015,10,23,04,14,7.80
2015,10,23,04,15,7.80
2015,10,23,04,16,7.80
2015,10,23,04,17,7.80
2015,10,23,04,18,7.80
2015,10,23,04,19,7.80
2015,10,23,04,20,7.80
2015,10,23,04,21,7.80
2015,10,23,04,22,7.80
2015,10,23,04,23,7.80
2015,10,23,04,24,7.80
2015,10,23,04,25,7.70
2015,10,23,04,26,7.70
2015,10,23,04,27,7.70
2015,10,23,04,28,7.70
2015,10,23,04,29,7.70
2015,10,23,04,30,7.70
2015,10,23,04,31,7.70
2015,10,23,04,32,7.80
2015,10,23,04,33,7.80
2015,10,23,04,34,7.80
2015,10,23,04,35,7.80
2015,10,23,04,36,7.80
2015,10,23,04,37,7.80
2015,10,23,04,38,7.80
2015,10,23,04,39,7.80
2015,10,23,04,40,7.80
2015,10,23,04,41,7.80
2015,10,23,04,42,7.80
2015,10,23,04,43,7.80
2015,10,23,04,44,7.80
2015,10,23,04,45,7.80
2015,10,23,04,46,7.80
2015,10,23,04,47,7.80
2015,10,23,04,48,7.80
2015,10,23,04,49,7.80
2015,10,23,04,50,7.80
2015,10,23,04,51,7.80
2015,10,23,04,52,7.80
2015,10,23,04,53,7.80
2015,10,23,04,54,7.80
2015,10,23,04,55,7.80
2015,10,23,04,56,7.80
2015,10,23,04,57,7.80
2015,10,23,04,58,7.80
2015,10,23,04,59,7.80
2015,10,23,05,00,7.80
2015,10,23,05,01,7.80
2015,10,23,05,02,7.80
2015,10,23,05,03,7.80
2015,10,23,05,04,7.80
2015,10,23,05,05,7.80
2015,10,23,05,06,7.80
2015,10,23,05,07,7.80
2015,10,23,05,08,7.80
2015,10,23,05,09,7.70
2015,10,23,05,10,7.60
2015,10,23,05,11,7.60
2015,10,23,05,12,7.60
2015,10,23,05,13,7.60
2015,10,23,05,14,7.60
2015,10,23,05,15,7.70
2015,10,23,05,16,7.70
2015,10,23,05,17,7.70
2015,10,23,05,18,7.70
2015,10,23,05,19,7.70
2015,10,23,05,20,7.80
2015,10,23,05,21,7.80
2015,10,23,05,22,7.80
2015,10,23,05,23,7.80
2015,10,23,05,24,7.80
2015,10,23,05,25,7.80
2015,10,23,05,26,7.80
2015,10,23,05,27,7.80
2015,10,23,05,28,7.80
2015,10,23,05,29,7.80
2015,10,23,05,30,7.80
2015,10,23,05,31,7.80
2015,10,23,05,32,7.80
2015,10,23,05,33,7.80
2015,10,23,05,34,7.80
2015,10,23,05,35,7.80
2015,10,23,05,36,7.80
2015,10,23,05,37,7.80
2015,10,23,05,38,7.80
2015,10,23,05,39,7.80
2015,10,23,05,40,7.80
2015,10,23,05,41,7.80
2015,10,23,05,42,7.70
2015,10,23,05,43,7.70
2015,10,23,05,44,7.70
2015,10,23,05,45,7.70
2015,10,23,05,46,7.70
2015,10,23,05,47,7.70
2015,10,23,05,48,7.70
2015,10,23,05,49,7.70
2015,10,23,05,50,7.70
2015,10,23,05,51,7.60
2015,10,23,05,52,7.60
2015,10,23,05,53,7.50
2015,10,23,05,54,7.40
2015,10,23,05,55,7.40
2015,10,23,05,56,7.30
2015,10,23,05,57,7.30
2015,10,23,05,58,7.30
2015,10,23,05,59,7.30
2015,10,23,06,00,7.30
2015,10,23,06,01,7.30
2015,10,23,06,02,7.30
2015,10,23,06,03,7.30
2015,10,23,06,04,7.30
2015,10,23,06,05,7.30
2015,10,23,06,06,7.40
2015,10,23,06,07,7.40
2015,10,23,06,08,7.40
2015,10,23,06,09,7.40
2015,10,23,06,10,7.40
2015,10,23,06,11,7.50
2015,10,23,06,12,7.50
2015,10,23,06,13,7.50
2015,10,23,06,14,7.40
2015,10,23,06,15,7.40
2015,10,23,06,16,7.30
2015,10,23,06,17,7.30
2015,10,23,06,18,7.30
2015,10,23,06,19,7.40
2015,10,23,06,20,7.40
2015,10,23,06,21,7.40
2015,10,23,06,22,7.50
2015,10,23,06,23,7.60
2015,10,23,06,24,7.60
2015,10,23,06,25,7.70
2015,10,23,06,26,7.70
2015,10,23,06,27,7.70
2015,10,23,06,28,7.70
2015,10,23,06,29,7.70
2015,10,23,06,30,7.70
2015,10,23,06,31,7.70
2015,10,23,06,32,7.70
2015,10,23,06,33,7.80
2015,10,23,06,34,7.80
2015,10,23,06,35,7.80
2015,10,23,06,36,7.90
2015,10,23,06,37,7.90
2015,10,23,06,38,7.90
2015,10,23,06,39,7.90
2015,10,23,06,40,7.90
2015,10,23,06,41,7.90
2015,10,23,06,42,8.00
2015,10,23,06,43,8.00
2015,10,23,06,44,8.00
2015,10,23,06,45,8.00
2015,10,23,06,46,8.00
2015,10,23,06,47,8.00
2015,10,23,06,48,8.00
2015,10,23,06,49,8.00
2015,10,23,06,50,8.00
2015,10,23,06,51,8.00
2015,10,23,06,52,8.00
2015,10,23,06,53,8.00
2015,10,23,06,54,7.90
2015,10,23,06,55,7.90
2015,10,23,06,56,7.90
2015,10,23,06,57,7.90
2015,10,23,06,58,7.90
2015,10,23,06,59,7.90
2015,10,23,07,00,7.90
2015,10,23,07,01,8.00
2015,10,23,07,02,8.00
2015,10,23,07,03,8.00
2015,10,23,07,04,8.00
2015,10,23,07,05,8.10
2015,10,23,07,06,8.10
2015,10,23,07,07,8.10
2015,10,23,07,08,8.10
2015,10,23,07,09,8.20
2015,10,23,07,10,8.20
2015,10,23,07,11,8.20
2015,10,23,07,12,8.20
2015,10,23,07,13,8.20
2015,10,23,07,14,8.20
2015,10,23,07,15,8.20
2015,10,23,07,16,8.20
2015,10,23,07,17,8.20
2015,10,23,07,18,8.20
2015,10,23,07,19,8.20
2015,10,23,07,20,8.30
2015,10,23,07,21,8.30
2015,10,23,07,22,8.30
2015,10,23,07,23,8.30
2015,10,23,07,24,8.30
2015,10,23,07,25,8.30
2015,10,23,07,26,8.40
2015,10,23,07,27,8.40
2015,10,23,07,28,8.40
2015,10,23,07,29,8.40
2015,10,23,07,30,8.40
2015,10,23,07,31,8.40
2015,10,23,07,32,8.40
2015,10,23,07,33,8.40
2015,10,23,07,34,8.40
2015,10,23,07,35,8.40
2015,10,23,07,36,8.40
2015,10,23,07,37,8.40
2015,10,23,07,38,8.40
2015,10,23,07,39,8.40
2015,10,23,07,40,8.40
2015,10,23,07,41,8.40
2015,10,23,07,42,8.40
2015,10,23,07,43,8.40
2015,10,23,07,44,8.40
2015,10,23,07,45,8.40
2015,10,23,07,46,8.40
2015,10,23,07,47,8.40
2015,10,23,07,48,8.40
2015,10,23,07,49,8.40
2015,10,23,07,50,8.40
2015,10,23,07,51,8.40
2015,10,23,07,52,8.50
2015,10,23,07,53,8.50
2015,10,23,07,54,8.50
2015,10,23,07,55,8.50
2015,10,23,07,56,8.60
2015,10,23,07,57,8.50
2015,10,23,07,58,8.60
2015,10,23,07,59,8.60
2015,10,23,08,00,8.60
2015,10,23,08,01,8.60
2015,10,23,08,02,8.60
2015,10,23,08,03,8.60
2015,10,23,08,04,8.60
2015,10,23,08,05,8.60
2015,10,23,08,06,8.70
2015,10,23,08,07,8.70
2015,10,23,08,08,8.70
2015,10,23,08,09,8.70
2015,10,23,08,10,8.70
2015,10,23,08,11,8.70
2015,10,23,08,12,8.70
2015,10,23,08,13,8.70
2015,10,23,08,14,8.70
2015,10,23,08,15,8.70
2015,10,23,08,16,8.70
2015,10,23,08,17,8.70
2015,10,23,08,18,8.70
2015,10,23,08,19,8.70
2015,10,23,08,20,8.70
2015,10,23,08,21,8.70
2015,10,23,08,22,8.70
2015,10,23,08,23,8.70
2015,10,23,08,24,8.70
2015,10,23,08,25,8.70
2015,10,23,08,26,8.70
2015,10,23,08,27,8.70
2015,10,23,08,28,8.70
2015,10,23,08,29,8.70
2015,10,23,08,30,8.70
2015,10,23,08,31,8.70
2015,10,23,08,32,8.70
2015,10,23,08,33,8.70
2015,10,23,08,34,8.70
2015,10,23,08,35,8.70
2015,10,23,08,36,8.70
2015,10,23,08,37,8.70
2015,10,23,08,38,8.70
2015,10,23,08,39,8.70
2015,10,23,08,40,8.70
2015,10,23,08,41,8.70
2015,10,23,08,42,8.70
2015,10,23,08,43,8.70
2015,10,23,08,44,8.70
2015,10,23,08,45,8.70
2015,10,23,08,46,8.70
2015,10,23,08,47,8.70
2015,10,23,08,48,8.80
2015,10,23,08,49,8.80
2015,10,23,08,50,8.80
2015,10,23,08,51,8.80
2015,10,23,08,52,8.80
2015,10,23,08,53,8.80
2015,10,23,08,54,8.80
2015,10,23,08,55,8.80
2015,10,23,08,56,8.80
2015,10,23,08,57,8.80
2015,10,23,08,58,8.90
2015,10,23,08,59,8.90
2015,10,23,09,00,8.90
2015,10,23,09,01,8.90
2015,10,23,09,02,8.90
2015,10,23,09,03,8.90
2015,10,23,09,04,9.00
2015,10,23,09,05,9.00
2015,10,23,09,06,9.00
2015,10,23,09,07,9.00
2015,10,23,09,08,9.00
2015,10,23,09,09,9.00
2015,10,23,09,10,9.10
2015,10,23,09,11,9.10
2015,10,23,09,12,9.10
2015,10,23,09,13,9.10
2015,10,23,09,14,9.10
2015,10,23,09,15,9.10
2015,10,23,09,16,9.10
2015,10,23,09,17,9.10
2015,10,23,09,18,9.10
2015,10,23,09,19,9.10
2015,10,23,09,20,9.10
2015,10,23,09,21,9.20
2015,10,23,09,22,9.20
2015,10,23,09,23,9.20
2015,10,23,09,24,9.20
2015,10,23,09,25,9.20
2015,10,23,09,26,9.10
2015,10,23,09,27,9.10
2015,10,23,09,28,9.20
2015,10,23,09,29,9.20
2015,10,23,09,30,9.20
2015,10,23,09,31,9.20
2015,10,23,09,32,9.20
2015,10,23,09,33,9.20
2015,10,23,09,34,9.20
2015,10,23,09,35,9.30
2015,10,23,09,36,9.30
2015,10,23,09,37,9.30
2015,10,23,09,38,9.30
2015,10,23,09,39,9.30
2015,10,23,09,40,9.30
2015,10,23,09,41,9.30
2015,10,23,09,42,9.30
2015,10,23,09,43,9.30
2015,10,23,09,44,9.30
2015,10,23,09,45,9.30
2015,10,23,09,46,9.30
2015,10,23,09,47,9.30
2015,10,23,09,48,9.30
2015,10,23,09,49,9.30
2015,10,23,09,50,9.20
2015,10,23,09,51,9.20
2015,10,23,09,52,9.20
2015,10,23,09,53,9.20
2015,10,23,09,54,9.20
2015,10,23,09,55,9.20
2015,10,23,09,56,9.20
2015,10,23,09,57,9.20
2015,10,23,09,58,9.20
2015,10,23,09,59,9.20
2015,10,23,10,00,9.20
2015,10,23,10,01,9.20
2015,10,23,10,02,9.20
2015,10,23,10,03,9.20
2015,10,23,10,04,9.20
2015,10,23,10,05,9.20
2015,10,23,10,06,9.20
2015,10,23,10,07,9.20
2015,10,23,10,08,9.20
2015,10,23,10,09,9.20
2015,10,23,10,10,9.30
2015,10,23,10,11,9.30
2015,10,23,10,12,9.30
2015,10,23,10,13,9.30
2015,10,23,10,14,9.30
2015,10,23,10,15,9.30
2015,10,23,10,16,9.30
2015,10,23,10,17,9.30
2015,10,23,10,18,9.30
2015,10,23,10,19,9.30
2015,10,23,10,20,9.30
2015,10,23,10,21,9.30
2015,10,23,10,22,9.30
2015,10,23,10,23,9.30
2015,10,23,10,24,9.30
2015,10,23,10,25,9.30
2015,10,23,10,26,9.30
2015,10,23,10,27,9.30
2015,10,23,10,28,9.30
2015,10,23,10,29,9.40
2015,10,23,10,30,9.40
2015,10,23,10,31,9.40
2015,10,23,10,32,9.40
2015,10,23,10,33,9.40
2015,10,23,10,34,9.40
2015,10,23,10,35,9.40
2015,10,23,10,36,9.40
2015,10,23,10,37,9.40
2015,10,23,10,38,9.40
2015,10,23,10,39,9.40
2015,10,23,10,40,9.40
2015,10,23,10,41,9.40
2015,10,23,10,42,9.40
2015,10,23,10,43,9.40
2015,10,23,10,44,9.40
2015,10,23,10,45,9.40
2015,10,23,10,46,9.40
2015,10,23,10,47,9.40
2015,10,23,10,48,9.40
2015,10,23,10,49,9.40
2015,10,23,10,50,9.40
2015,10,23,10,51,9.50
2015,10,23,10,52,9.60
2015,10,23,10,53,9.60
2015,10,23,10,54,9.70
2015,10,23,10,55,9.70
2015,10,23,10,56,9.70
2015,10,23,10,57,9.80
2015,10,23,10,58,9.80
2015,10,23,10,59,9.90
2015,10,23,11,00,9.90
2015,10,23,11,01,10.00
2015,10,23,11,02,10.00
2015,10,23,11,03,10.00
2015,10,23,11,04,10.00
2015,10,23,11,05,10.00
2015,10,23,11,06,10.10
2015,10,23,11,07,10.10
2015,10,23,11,08,10.20
2015,10,23,11,09,10.30
2015,10,23,11,10,10.30
2015,10,23,11,11,10.30
2015,10,23,11,12,10.40
2015,10,23,11,13,10.40
2015,10,23,11,14,10.50
2015,10,23,11,15,10.60
2015,10,23,11,16,10.60
2015,10,23,11,17,10.70
2015,10,23,11,18,10.80
2015,10,23,11,19,10.90
2015,10,23,11,20,11.00
2015,10,23,11,21,11.10
2015,10,23,11,22,11.10
2015,10,23,11,23,11.20
2015,10,23,11,24,11.20
2015,10,23,11,25,11.20
2015,10,23,11,26,11.20
2015,10,23,11,27,11.20
2015,10,23,11,28,11.20
2015,10,23,11,29,11.20
2015,10,23,11,30,11.30
2015,10,23,11,31,11.30
2015,10,23,11,32,11.30
2015,10,23,11,33,11.40
2015,10,23,11,34,11.40
2015,10,23,11,35,11.40
2015,10,23,11,36,11.40
2015,10,23,11,37,11.40
2015,10,23,11,38,11.40
2015,10,23,11,39,11.40
2015,10,23,11,40,11.40
2015,10,23,11,41,11.40
2015,10,23,11,42,11.40
2015,10,23,11,43,11.40
2015,10,23,11,44,11.40
2015,10,23,11,45,11.40
2015,10,23,11,46,11.40
2015,10,23,11,47,11.40
2015,10,23,11,48,11.40
2015,10,23,11,49,11.50
2015,10,23,11,50,11.50
2015,10,23,11,51,11.50
2015,10,23,11,52,11.60
2015,10,23,11,53,11.60
2015,10,23,11,54,11.50
2015,10,23,11,55,11.50
2015,10,23,11,56,11.50
2015,10,23,11,57,11.50
2015,10,23,11,58,11.50
2015,10,23,11,59,11.50
2015,10,23,12,00,11.60
2015,10,23,12,01,11.60
2015,10,23,12,02,11.60
2015,10,23,12,03,11.60
2015,10,23,12,04,11.60
2015,10,23,12,05,11.60
2015,10,23,12,06,11.60
2015,10,23,12,07,11.70
2015,10,23,12,08,11.70
2015,10,23,12,09,11.70
2015,10,23,12,10,11.80
2015,10,23,12,11,11.80
2015,10,23,12,12,11.80
2015,10,23,12,13,11.90
2015,10,23,12,14,11.90
2015,10,23,12,15,11.90
2015,10,23,12,16,12.00
2015,10,23,12,17,12.10
2015,10,23,12,18,12.10
2015,10,23,12,19,12.20
2015,10,23,12,20,12.20
2015,10,23,12,21,12.30
2015,10,23,12,22,12.30
2015,10,23,12,23,12.30
2015,10,23,12,24,12.30
2015,10,23,12,25,12.30
2015,10,23,12,26,12.20
2015,10,23,12,27,12.20
2015,10,23,12,28,12.10
2015,10,23,12,29,12.10
2015,10,23,12,30,12.00
2015,10,23,12,31,12.00
2015,10,23,12,32,12.10
2015,10,23,12,33,12.10
2015,10,23,12,34,12.20
2015,10,23,12,35,12.20
2015,10,23,12,36,12.20
2015,10,23,12,37,12.20
2015,10,23,12,38,12.30
2015,10,23,12,39,12.30
2015,10,23,12,40,12.30
2015,10,23,12,41,12.40
2015,10,23,12,42,12.40
2015,10,23,12,43,12.40
2015,10,23,12,44,12.50
2015,10,23,12,45,12.60
2015,10,23,12,46,12.60
2015,10,23,12,47,12.60
2015,10,23,12,48,12.50
2015,10,23,12,49,12.60
2015,10,23,12,50,12.50
2015,10,23,12,51,12.50
2015,10,23,12,52,12.50
2015,10,23,12,53,12.50
2015,10,23,12,54,12.40
2015,10,23,12,55,12.40
2015,10,23,12,56,12.40
2015,10,23,12,57,12.40
2015,10,23,12,58,12.40
2015,10,23,12,59,12.40
2015,10,23,13,00,12.40
2015,10,23,13,01,12.40
2015,10,23,13,02,12.50
2015,10,23,13,03,12.50
2015,10,23,13,04,12.50
2015,10,23,13,05,12.60
2015,10,23,13,06,12.60
2015,10,23,13,07,12.60
2015,10,23,13,08,12.60
2015,10,23,13,09,12.60
2015,10,23,13,10,12.70
2015,10,23,13,11,12.70
2015,10,23,13,12,12.80
2015,10,23,13,13,12.80
2015,10,23,13,14,12.80
2015,10,23,13,15,12.80
2015,10,23,13,16,12.80
2015,10,23,13,17,12.90
2015,10,23,13,18,12.90
2015,10,23,13,19,13.00
2015,10,23,13,20,13.00
2015,10,23,13,21,13.10
2015,10,23,13,22,13.10
2015,10,23,13,23,13.20
2015,10,23,13,24,13.20
2015,10,23,13,25,13.20
2015,10,23,13,26,13.20
2015,10,23,13,27,13.20
2015,10,23,13,28,13.10
2015,10,23,13,29,13.10
2015,10,23,13,30,13.10
2015,10,23,13,31,13.00
2015,10,23,13,32,13.10
2015,10,23,13,33,13.10
2015,10,23,13,34,13.20
2015,10,23,13,35,13.20
2015,10,23,13,36,13.30
2015,10,23,13,37,13.30
2015,10,23,13,38,13.30
2015,10,23,13,39,13.30
2015,10,23,13,40,13.40
2015,10,23,13,41,13.40
2015,10,23,13,42,13.40
2015,10,23,13,43,13.50
2015,10,23,13,44,13.60
2015,10,23,13,45,13.60
2015,10,23,13,46,13.70
2015,10,23,13,47,13.80
2015,10,23,13,48,13.80
2015,10,23,13,49,13.90
2015,10,23,13,50,13.90
2015,10,23,13,51,14.00
2015,10,23,13,52,14.00
2015,10,23,13,53,14.10
2015,10,23,13,54,14.10
2015,10,23,13,55,14.20
2015,10,23,13,56,14.20
2015,10,23,13,57,14.20
2015,10,23,13,58,14.30
2015,10,23,13,59,14.40
2015,10,23,14,00,14.40
2015,10,23,14,01,14.40
2015,10,23,14,02,14.40
2015,10,23,14,03,14.40
2015,10,23,14,04,14.40
2015,10,23,14,05,14.40
2015,10,23,14,06,14.30
2015,10,23,14,07,14.20
2015,10,23,14,08,14.10
2015,10,23,14,09,13.90
2015,10,23,14,10,13.80
2015,10,23,14,11,13.60
2015,10,23,14,12,13.40
2015,10,23,14,13,13.30
2015,10,23,14,14,13.20
2015,10,23,14,15,13.20
2015,10,23,14,16,13.20
2015,10,23,14,17,13.20
2015,10,23,14,18,13.10
2015,10,23,14,19,13.10
2015,10,23,14,20,13.20
2015,10,23,14,21,13.10
2015,10,23,14,22,13.10
2015,10,23,14,23,13.10
2015,10,23,14,24,13.00
2015,10,23,14,25,12.90
2015,10,23,14,26,12.90
2015,10,23,14,27,12.80
2015,10,23,14,28,12.80
2015,10,23,14,29,12.80
2015,10,23,14,30,12.80
2015,10,23,14,31,12.80
2015,10,23,14,32,12.90
2015,10,23,14,33,12.90
2015,10,23,14,34,13.00
2015,10,23,14,35,13.10
2015,10,23,14,36,13.10
2015,10,23,14,37,13.10
2015,10,23,14,38,12.90
2015,10,23,14,39,12.80
2015,10,23,14,40,12.80
2015,10,23,14,41,12.80
2015,10,23,14,42,12.80
2015,10,23,14,43,12.80
2015,10,23,14,44,12.80
2015,10,23,14,45,12.70
2015,10,23,14,46,12.70
2015,10,23,14,47,12.70
2015,10,23,14,48,12.70
2015,10,23,14,49,12.70
2015,10,23,14,50,12.60
2015,10,23,14,51,12.60
2015,10,23,14,52,12.60
2015,10,23,14,53,12.60
2015,10,23,14,54,12.60
2015,10,23,14,55,12.60
2015,10,23,14,56,12.60
2015,10,23,14,57,12.60
2015,10,23,14,58,12.60
2015,10,23,14,59,12.60
2015,10,23,15,00,12.60
2015,10,23,15,01,12.60
2015,10,23,15,02,12.60
2015,10,23,15,03,12.70
2015,10,23,15,04,12.70
2015,10,23,15,05,12.70
2015,10,23,15,06,12.80
2015,10,23,15,07,12.70
2015,10,23,15,08,12.70
2015,10,23,15,09,12.80
2015,10,23,15,10,12.80
2015,10,23,15,11,12.80
2015,10,23,15,12,12.80
2015,10,23,15,13,12.80
2015,10,23,15,14,12.80
2015,10,23,15,15,12.80
2015,10,23,15,16,12.80
2015,10,23,15,17,12.80
2015,10,23,15,18,12.80
2015,10,23,15,19,12.80
2015,10,23,15,20,12.80
2015,10,23,15,21,12.80
2015,10,23,15,22,12.80
2015,10,23,15,23,12.80
2015,10,23,15,24,12.80
2015,10,23,15,25,12.80
2015,10,23,15,26,12.80
2015,10,23,15,27,12.80
2015,10,23,15,28,12.80
2015,10,23,15,29,12.90
2015,10,23,15,30,12.90
2015,10,23,15,31,12.90
2015,10,23,15,32,12.90
2015,10,23,15,33,12.90
2015,10,23,15,34,13.00
2015,10,23,15,35,13.00
2015,10,23,15,36,13.10
2015,10,23,15,37,13.00
2015,10,23,15,38,13.00
2015,10,23,15,39,13.00
2015,10,23,15,40,13.00
2015,10,23,15,41,13.00
2015,10,23,15,42,13.10
2015,10,23,15,43,13.10
2015,10,23,15,44,13.10
2015,10,23,15,45,13.10
2015,10,23,15,46,13.10
2015,10,23,15,47,13.10
2015,10,23,15,48,13.10
2015,10,23,15,49,13.10
2015,10,23,15,50,13.10
2015,10,23,15,51,13.00
2015,10,23,15,52,13.00
2015,10,23,15,53,12.90
2015,10,23,15,54,12.90
2015,10,23,15,55,12.90
2015,10,23,15,56,12.90
2015,10,23,15,57,12.90
2015,10,23,15,58,12.90
2015,10,23,15,59,12.80
2015,10,23,16,00,12.80
2015,10,23,16,01,12.80
2015,10,23,16,02,12.90
2015,10,23,16,03,12.90
2015,10,23,16,04,12.90
2015,10,23,16,05,12.90
2015,10,23,16,06,12.90
2015,10,23,16,07,12.80
2015,10,23,16,08,12.80
2015,10,23,16,09,12.80
2015,10,23,16,10,12.90
2015,10,23,16,11,12.90
2015,10,23,16,12,12.80
2015,10,23,16,13,12.80
2015,10,23,16,14,12.80
2015,10,23,16,15,12.80
2015,10,23,16,16,12.80
2015,10,23,16,17,12.80
2015,10,23,16,18,12.70
2015,10,23,16,19,12.80
2015,10,23,16,20,12.80
2015,10,23,16,21,12.80
2015,10,23,16,22,12.80
2015,10,23,16,23,12.80
2015,10,23,16,24,12.80
2015,10,23,16,25,12.90
2015,10,23,16,26,12.90
2015,10,23,16,27,12.90
2015,10,23,16,28,12.90
2015,10,23,16,29,12.90
2015,10,23,16,30,12.90
2015,10,23,16,31,12.90
2015,10,23,16,32,12.90
2015,10,23,16,33,12.90
2015,10,23,16,34,12.90
2015,10,23,16,35,12.90
2015,10,23,16,36,12.90
2015,10,23,16,37,12.90
2015,10,23,16,38,12.80
2015,10,23,16,39,12.80
2015,10,23,16,40,12.70
2015,10,23,16,41,12.60
2015,10,23,16,42,12.60
2015,10,23,16,43,12.60
2015,10,23,16,44,12.50
2015,10,23,16,45,12.50
2015,10,23,16,46,12.60
2015,10,23,16,47,12.60
2015,10,23,16,48,12.60
2015,10,23,16,49,12.70
2015,10,23,16,50,12.70
2015,10,23,16,51,12.60
2015,10,23,16,52,12.60
2015,10,23,16,53,12.60
2015,10,23,16,54,12.60
2015,10,23,16,55,12.60
2015,10,23,16,56,12.70
2015,10,23,16,57,12.70
2015,10,23,16,58,12.70
2015,10,23,16,59,12.70
2015,10,23,17,00,12.70
2015,10,23,17,01,12.70
2015,10,23,17,02,12.70
2015,10,23,17,03,12.70
2015,10,23,17,04,12.60
2015,10,23,17,05,12.60
2015,10,23,17,06,12.60
2015,10,23,17,07,12.60
2015,10,23,17,08,12.60
2015,10,23,17,09,12.60
2015,10,23,17,10,12.70
2015,10,23,17,11,12.60
2015,10,23,17,12,12.70
2015,10,23,17,13,12.70
2015,10,23,17,14,12.60
2015,10,23,17,15,12.60
2015,10,23,17,16,12.60
2015,10,23,17,17,12.60
2015,10,23,17,18,12.60
2015,10,23,17,19,12.60
2015,10,23,17,20,12.60
2015,10,23,17,21,12.60
2015,10,23,17,22,12.60
2015,10,23,17,23,12.60
2015,10,23,17,24,12.50
2015,10,23,17,25,12.50
2015,10,23,17,26,12.50
2015,10,23,17,27,12.50
2015,10,23,17,28,12.40
2015,10,23,17,29,12.40
2015,10,23,17,30,12.40
2015,10,23,17,31,12.40
2015,10,23,17,32,12.30
2015,10,23,17,33,12.30
2015,10,23,17,34,12.30
2015,10,23,17,35,12.30
2015,10,23,17,36,12.30
2015,10,23,17,37,12.30
2015,10,23,17,38,12.30
2015,10,23,17,39,12.30
2015,10,23,17,40,12.20
2015,10,23,17,41,12.20
2015,10,23,17,42,12.20
2015,10,23,17,43,12.20
2015,10,23,17,44,12.20
2015,10,23,17,45,12.10
2015,10,23,17,46,12.10
2015,10,23,17,47,12.10
2015,10,23,17,48,12.10